Location: Biltmore Gardens
(41.6070°N, 83.4666°W)
Time: 15:08:04
(UTC+00:00)

USA 215 - Pass Details

Date: 14 July 2020
Orbit: 1102 x 1106 km, 123.0° (Epoch: 08 August)

Event Time Altitude Azimuth Distance (km) Brightness Sun altitude
Rises 05:16:14 0° 46° (NE) 3,925 6.7 -26.6°
Reaches altitude 10° 05:18:47 10° 41° (NE) 2,965 6.0 -26.6°
Maximum altitude 05:25:02 50° 329° (NNW) 1,380 4.0 -26.7°
Drops below altitude 10° 05:31:16 10° 256° (WSW) 2,956 5.4 -26.8°
Enters shadow 05:33:39 - 252° (WSW) 3,852 6.0 -26.8°
